sat.trackr.live / text

‹ back to catalog

STARLINK-4205

NORAD 53174 · 2022-083AU

PAYLOAD ACTIVE UNKNOWN

§ Identity

Operator
Country
US
Launch date
2022-07-17
Launch site
AFETR
Launch vehicle
Mass (kg)
RCS (m²)

Purposes: comms

External: N2YO · Heavens-Above · Gunter

§ Orbital elements

Epoch: 2026-09-20T00:34:15.430080Z

Period
94.01 min
Inclination
53.1611°
Eccentricity
0.0001261
Mean motion
15.31698614 rev/d
Perigee alt
469.9 km
Apogee alt
471.6 km
Semi-major
6,848.9 km
B*
1.2228e-5
RAAN
6.1576°
Arg perigee
79.6340°
Mean anomaly
280.4803°
Rev number
23,076

§ Raw data

STARLINK-42051 53174U 22083AU  26263.02378970  .00000014  00000+0  12228-4 0  99932 53174  53.1611   6.1576 0001261  79.6340 280.4803 15.31698614230760

JSON: /api/v1/satellites/53174 · /tle

For live sub-satellite position, see the globe view (requires WebGL).

§ Visibility from observer

Set your observer location to see the next 7 days of passes ≥ 10°. The values pass through the URL so the page stays shareable.

No JS? Fill the form by hand. The geolocation button needs JavaScript.